TimeCDT,TemperatureF,Dew PointF,Humidity,Sea Level PressureIn,VisibilityMPH,Wind Direction,Wind SpeedMPH,Gust SpeedMPH,PrecipitationIn,Events,Conditions,WindDirDegrees,DateUTC
12:15 AM,50.2,27.5,42,29.95,10.0,SSW,15.0,-,N/A,,Clear,210,2012-10-11 05:15:00
12:35 AM,50.5,27.3,41,29.95,10.0,SSW,15.0,-,N/A,,Clear,210,2012-10-11 05:35:00
12:55 AM,50.4,27.3,41,29.95,10.0,SSW,10.4,-,N/A,,Clear,210,2012-10-11 05:55:00
1:15 AM,49.8,27.3,42,29.94,10.0,SSW,11.5,-,N/A,,Clear,200,2012-10-11 06:15:00
1:35 AM,51.8,26.6,38,29.95,10.0,SSW,12.7,18.4,N/A,,Clear,210,2012-10-11 06:35:00
1:55 AM,52.0,26.2,37,29.95,10.0,SSW,15.0,19.6,N/A,,Clear,210,2012-10-11 06:55:00
2:15 AM,52.0,26.2,37,29.95,10.0,SSW,17.3,20.7,N/A,,Clear,210,2012-10-11 07:15:00
2:55 AM,51.1,26.6,39,29.94,10.0,SSW,12.7,19.6,N/A,,Clear,210,2012-10-11 07:55:00
3:15 AM,51.1,27.0,39,29.94,10.0,SSW,13.8,19.6,N/A,,Clear,210,2012-10-11 08:15:00
3:35 AM,51.8,26.6,38,29.94,10.0,SSW,16.1,-,N/A,,Clear,210,2012-10-11 08:35:00
3:55 AM,51.4,26.6,38,29.94,10.0,SSW,17.3,20.7,N/A,,Clear,210,2012-10-11 08:55:00
4:15 AM,50.2,27.1,41,29.95,10.0,SW,15.0,-,N/A,,Clear,220,2012-10-11 09:15:00
4:35 AM,49.8,27.3,42,29.95,10.0,SSW,11.5,-,N/A,,Clear,210,2012-10-11 09:35:00
4:55 AM,49.1,27.5,43,29.94,10.0,SSW,15.0,-,N/A,,Clear,210,2012-10-11 09:55:00
5:15 AM,48.9,27.5,43,29.95,10.0,SSW,13.8,-,N/A,,Clear,210,2012-10-11 10:15:00
5:35 AM,48.2,27.9,45,29.95,10.0,SSW,13.8,-,N/A,,Clear,210,2012-10-11 10:35:00
5:55 AM,46.9,28.2,48,29.96,10.0,SSW,11.5,-,N/A,,Clear,210,2012-10-11 10:55:00
6:15 AM,46.2,28.4,50,29.96,10.0,SSW,9.2,-,N/A,,Clear,210,2012-10-11 11:15:00
6:35 AM,45.7,28.4,51,30.00,10.0,WNW,4.6,-,N/A,,Clear,290,2012-10-11 11:35:00
6:55 AM,44.1,28.4,54,30.00,10.0,WSW,6.9,-,N/A,,Clear,240,2012-10-11 11:55:00
7:15 AM,44.1,28.6,55,30.00,10.0,WSW,3.5,-,N/A,,Clear,240,2012-10-11 12:15:00
7:35 AM,42.1,28.2,58,30.00,10.0,Calm,Calm,-,N/A,,Clear,0,2012-10-11 12:35:00
7:55 AM,41.9,28.4,59,30.01,10.0,South,4.6,-,N/A,,Clear,190,2012-10-11 12:55:00
8:15 AM,43.0,29.3,59,30.02,10.0,SSW,3.5,-,N/A,,Clear,200,2012-10-11 13:15:00
8:35 AM,44.1,29.5,57,30.03,10.0,Calm,Calm,-,N/A,,Clear,0,2012-10-11 13:35:00
8:55 AM,45.0,29.8,55,30.04,10.0,Calm,Calm,-,N/A,,Clear,0,2012-10-11 13:55:00
9:15 AM,46.4,30.4,54,30.06,10.0,North,6.9,-,N/A,,Clear,350,2012-10-11 14:15:00
9:35 AM,46.8,30.2,53,30.08,10.0,NNE,9.2,-,N/A,,Clear,20,2012-10-11 14:35:00
9:55 AM,47.5,31.3,53,30.10,10.0,North,15.0,-,N/A,,Clear,10,2012-10-11 14:55:00
10:15 AM,47.3,32.0,55,30.11,10.0,North,15.0,18.4,N/A,,Clear,10,2012-10-11 15:15:00
10:35 AM,47.3,31.8,55,30.12,10.0,NNE,12.7,-,N/A,,Clear,20,2012-10-11 15:35:00
10:55 AM,47.3,31.3,54,30.13,10.0,NNE,16.1,-,N/A,,Clear,20,2012-10-11 15:55:00
11:15 AM,48.2,31.8,53,30.13,10.0,NNE,15.0,-,N/A,,Clear,30,2012-10-11 16:15:00
11:35 AM,48.9,32.0,52,30.14,10.0,NNE,16.1,21.9,N/A,,Clear,20,2012-10-11 16:35:00
11:55 AM,49.1,32.0,52,30.15,10.0,NNE,17.3,23.0,N/A,,Clear,30,2012-10-11 16:55:00
12:15 PM,49.1,32.4,53,30.15,10.0,North,18.4,24.2,N/A,,Clear,10,2012-10-11 17:15:00
12:55 PM,50.7,31.8,48,30.15,10.0,NNE,16.1,19.6,N/A,,Clear,20,2012-10-11 17:55:00
1:15 PM,50.4,30.0,46,30.16,10.0,North,18.4,23.0,N/A,,Clear,360,2012-10-11 18:15:00
1:35 PM,50.5,30.2,46,30.17,10.0,NNE,11.5,19.6,N/A,,Clear,20,2012-10-11 18:35:00
1:55 PM,50.0,28.2,43,30.17,10.0,NNE,16.1,23.0,N/A,,Scattered Clouds,20,2012-10-11 18:55:00
2:15 PM,49.5,27.9,43,30.18,10.0,NNE,15.0,19.6,N/A,,Mostly Cloudy,20,2012-10-11 19:15:00
2:35 PM,49.6,26.6,41,30.20,10.0,NNE,15.0,19.6,N/A,,Overcast,20,2012-10-11 19:35:00
2:55 PM,50.4,25.3,38,30.20,10.0,NNE,15.0,21.9,N/A,,Mostly Cloudy,30,2012-10-11 19:55:00
3:15 PM,49.6,25.3,39,30.22,10.0,North,15.0,24.2,N/A,,Mostly Cloudy,10,2012-10-11 20:15:00
3:55 PM,50.2,25.9,39,30.22,10.0,North,13.8,19.6,N/A,,Scattered Clouds,10,2012-10-11 20:55:00
4:15 PM,49.8,25.7,39,30.23,10.0,North,12.7,19.6,N/A,,Clear,10,2012-10-11 21:15:00
4:35 PM,50.2,26.2,39,30.23,10.0,North,15.0,-,N/A,,Clear,360,2012-10-11 21:35:00
5:15 PM,48.7,28.4,45,30.23,10.0,NNE,15.0,21.9,N/A,,Clear,20,2012-10-11 22:15:00
5:55 PM,47.8,26.8,44,30.24,10.0,North,10.4,20.7,N/A,,Scattered Clouds,10,2012-10-11 22:55:00
6:35 PM,47.3,27.1,46,30.26,10.0,North,10.4,-,N/A,,Scattered Clouds,10,2012-10-11 23:35:00
6:55 PM,46.4,25.5,44,30.26,10.0,North,12.7,17.3,N/A,,Clear,10,2012-10-11 23:55:00
7:15 PM,45.3,25.7,46,30.27,10.0,North,9.2,-,N/A,,Clear,10,2012-10-12 00:15:00
7:35 PM,44.1,25.3,48,30.29,10.0,North,9.2,-,N/A,,Clear,10,2012-10-12 00:35:00
7:55 PM,43.2,23.9,47,30.30,10.0,North,8.1,-,N/A,,Clear,10,2012-10-12 00:55:00
8:15 PM,42.1,23.7,48,30.31,10.0,North,5.8,-,N/A,,Clear,360,2012-10-12 01:15:00
8:35 PM,40.5,23.7,51,30.33,10.0,North,5.8,-,N/A,,Clear,10,2012-10-12 01:35:00
8:55 PM,39.7,23.2,52,30.34,10.0,North,4.6,-,N/A,,Clear,360,2012-10-12 01:55:00
9:15 PM,38.5,23.0,54,30.34,10.0,NNE,3.5,-,N/A,,Clear,20,2012-10-12 02:15:00
9:55 PM,37.0,23.0,57,30.36,10.0,North,3.5,-,N/A,,Clear,10,2012-10-12 02:55:00
10:35 PM,35.6,22.8,60,30.37,10.0,NNE,3.5,-,N/A,,Clear,20,2012-10-12 03:35:00
10:55 PM,34.9,22.8,61,30.38,10.0,Calm,Calm,-,N/A,,Clear,0,2012-10-12 03:55:00
11:15 PM,33.8,22.6,64,30.38,10.0,Calm,Calm,-,N/A,,Clear,0,2012-10-12 04:15:00
11:35 PM,33.3,22.5,65,30.38,10.0,NNE,4.6,-,N/A,,Clear,30,2012-10-12 04:35:00
11:55 PM,32.4,22.6,67,30.39,10.0,NNE,3.5,-,N/A,,Clear,30,2012-10-12 04:55:00